Location: Heidgraben
(53.7081°N, 9.6576°E)
Time: 04:36:26
(UTC+00:00)

Cosmos 2058 - Pass Details

Date: 05 July 2020
Orbit: 561 x 584 km, 82.5° (Epoch: 06 August)

Event Time Altitude Azimuth Distance (km) Brightness Sun altitude
Exits shadow 21:24:58 12° 158° (SSE) 1,734 4.7 -9.3°
Maximum altitude 21:28:25 38° 93° (E) 885 3.6 -9.5°
Drops below altitude 10° 21:32:16 10° 25° (NNE) 1,887 6.1 -9.8°
Sets 21:34:33 0° 17° (NNE) 2,786 7.2 -9.9°
